Temperature
2 2 2 2 1 1 1 1 1 1 1 1 1 1 0 0 0 0 -0 -0 -0 -0 -1 -1 -1 -1 -1 -1 -1 -1 -2 -2 -2 -2 -2 -2 -2 -2 -2 -2 -2 -2 -2
1 1 1 1 1 1 0 0 0 0 0 0 0 -0 -0 -0 -1 -1 -1 -1 -1 -1 -1 -1 -1 -1 -2 -2 -2 -2 -2 -2 -3 -3 -3 -3 -3 -3 -3 -3 -3 -3 -3
1 1 1 0 0 0 -0 -0 -0 -1 -1 -1 -1 -1 -1 -1 -1 -2 -2 -2 -2 -2 -2 -2 -2 -2 -2 -2 -2 -2 -3 -3 -3 -3 -3 -3 -3 -3 -3 -3 -3 -3 -3
0 0 0 -0 -0 -0 -1 -1 -1 -1 -1 -1 -2 -2 -2 -2 -2 -2 -3 -3 -3 -3 -3 -3 -3 -3 -3 -3 -3 -3 -3 -3 -4 -4 -4 -4 -4 -4 -4 -4 -4 -4 -4
-1 -0 -0 -1 -1 -1 -1 -1 -1 -2 -2 -2 -2 -3 -3 -3 -3 -3 -3 -3 -3 -3 -3 -3 -3 -3 -4 -4 -4 -4 -4 -4 -4 -5 -5 -4 -4 -4 -5 -5 -5 -4 -4
-1 -1 -2 -2 -2 -2 -2 -2 -2 -2 -3 -3 -3 -3 -3 -4 -4 -4 -4 -4 -4 -4 -4 -4 -4 -4 -4 -5 -5 -5 -5 -5 -5 -5 -5 -5 -5 -5 -5 -5 -5 -5 -5
-2 -2 -2 -2 -2 -3 -3 -3 -3 -3 -3 -3 -4 -4 -4 -4 -5 -5 -5 -5 -5 -5 -5 -5 -5 -5 -5 -5 -5 -5 -5 -6 -6 -6 -6 -6 -6 -6 -6 -6 -6 -6 -6
-3 -3 -3 -3 -3 -3 -4 -4 -4 -4 -4 -4 -4 -5 -5 -5 -5 -5 -5 -6 -6 -6 -6 -6 -5 -5 -6 -6 -6 -6 -6 -6 -6 -6 -6 -6 -6 -6 -7 -7 -7 -7 -6
-4 -4 -4 -4 -4 -4 -4 -4 -4 -5 -5 -5 -5 -5 -6 -6 -6 -6 -6 -6 -6 -6 -6 -6 -6 -6 -6 -7 -7 -6 -6 -6 -7 -7 -7 -7 -7 -7 -7 -7 -7 -7 -7
-4 -5 -5 -5 -5 -5 -5 -5 -5 -6 -6 -6 -6 -6 -6 -6 -7 -7 -7 -7 -7 -7 -7 -7 -7 -7 -7 -7 -7 -7 -7 -7 -7 -7 -7 -7 -7 -7 -8 -8 -8 -8 -8
-5 -5 -5 -6 -6 -6 -6 -6 -6 -6 -7 -7 -7 -7 -7 -7 -7 -7 -7 -7 -7 -7 -7 -7 -7 -7 -8 -8 -8 -8 -8 -8 -8 -8 -8 -8 -8 -8 -8 -8 -8 -9 -9
-6 -6 -6 -6 -7 -7 -7 -7 -7 -7 -7 -8 -8 -8 -8 -8 -8 -8 -8 -8 -8 -8 -8 -8 -8 -8 -8 -8 -8 -8 -8 -8 -8 -8 -8 -8 -8 -8 -8 -8 -9 -9 -9
-7 -7 -7 -7 -7 -7 -7 -8 -8 -8 -8 -8 -8 -9 -9 -9 -8 -8 -8 -8 -8 -8 -8 -8 -8 -8 -8 -8 -8 -9 -9 -9 -9 -9 -9 -9 -9 -9 -9 -9 -9 -9 -9
-8 -8 -8 -8 -8 -8 -8 -8 -9 -9 -9 -9 -9 -9 -9 -9 -9 -9 -9 -9 -9 -9 -9 -9 -9 -9 -9 -9 -9 -9 -9 -9 -9 -9 -9 -9 -9 -9 -10 -10 -10 -10 -10
-8 -8 -8 -9 -9 -9 -9 -9 -9 -9 -10 -10 -10 -10 -10 -10 -10 -10 -9 -9 -9 -9 -10 -10 -10 -10 -9 -9 -10 -10 -10 -10 -10 -10 -10 -10 -10 -10 -10 -10 -10 -10 -10
-9 -9 -9 -9 -10 -10 -10 -10 -10 -10 -10 -10 -10 -11 -11 -10 -10 -10 -10 -10 -10 -10 -10 -10 -10 -10 -10 -10 -10 -10 -10 -10 -10 -10 -10 -10 -11 -11 -11 -11 -11 -11 -11
-10 -10 -10 -10 -10 -10 -11 -11 -11 -11 -11 -11 -11 -11 -11 -11 -11 -11 -11 -11 -11 -11 -11 -11 -11 -11 -11 -11 -11 -11 -11 -11 -11 -11 -11 -11 -11 -11 -11 -11 -11 -11 -11
-10 -10 -11 -11 -11 -11 -11 -11 -11 -11 -11 -11 -11 -11 -11 -11 -11 -11 -11 -11 -11 -11 -11 -11 -11 -11 -11 -11 -12 -12 -12 -12 -12 -12 -12 -12 -12 -12 -12 -12 -12 -12 -12
-11 -11 -11 -11 -11 -11 -11 -12 -12 -12 -12 -12 -12 -12 -12 -12 -12 -12 -12 -12 -12 -12 -12 -12 -12 -12 -12 -12 -12 -12 -12 -12 -12 -12 -12 -12 -12 -12 -12 -12 -12 -12 -12
-11 -12 -12 -12 -12 -12 -12 -12 -12 -12 -12 -12 -12 -12 -12 -12 -12 -12 -12 -12 -12 -12 -12 -12 -12 -12 -12 -12 -13 -13 -13 -13 -13 -13 -13 -13 -13 -13 -13 -13 -13 -13 -13
-12 -12 -12 -12 -12 -12 -12 -12 -13 -13 -13 -13 -13 -13 -13 -13 -13 -13 -13 -13 -13 -13 -13 -13 -13 -13 -13 -13 -13 -13 -13 -13 -13 -13 -13 -13 -13 -13 -13 -13 -13 -13 -13
-12 -12 -13 -13 -13 -13 -13 -13 -13 -13 -13 -13 -13 -13 -13 -13 -13 -13 -13 -13 -13 -13 -13 -13 -13 -13 -13 -13 -13 -13 -13 -14 -14 -14 -14 -14 -14 -14 -14 -14 -14 -14 -14
-13 -13 -13 -13 -13 -13 -13 -14 -14 -14 -14 -14 -14 -14 -14 -14 -14 -14 -14 -14 -14 -14 -14 -14 -14 -14 -14 -14 -14 -14 -14 -14 -14 -14 -14 -14 -14 -14 -14 -14 -14 -14 -14
-13 -13 -13 -13 -14 -14 -14 -14 -14 -14 -14 -14 -14 -14 -14 -14 -14 -14 -14 -14 -14 -14 -14 -14 -14 -14 -14 -14 -14 -14 -14 -14 -14 -14 -14 -14 -14 -14 -14 -14 -14 -14 -14
-14 -14 -14 -14 -14 -14 -14 -14 -14 -15 -15 -15 -15 -15 -15 -15 -15 -14 -14 -15 -15 -15 -15 -15 -15 -15 -15 -15 -15 -15 -14 -14 -15 -15 -15 -15 -15 -15 -15 -15 -15 -15 -15
-14 -14 -14 -14 -14 -15 -15 -15 -15 -15 -15 -15 -15 -15 -15 -15 -15 -15 -15 -15 -15 -15 -15 -15 -15 -15 -15 -15 -15 -15 -15 -15 -15 -15 -15 -15 -15 -15 -15 -15 -15 -15 -15
Wind_Speed
3 4 4 5 5 5 5 5 5 5 5 6 5 5 6 6 5 6 5 5 5 3 3 3 2 2 2 1 1 1 1 1 2 2 2 2 2 4 7 8 8 8 8
3 4 4 4 5 5 5 5 5 5 5 5 5 5 5 5 6 6 6 5 5 5 4 4 3 2 2 2 2 1 1 1 2 3 3 2 3 3 5 5 7 8 8
3 4 4 4 5 5 5 5 5 5 5 5 5 5 5 5 5 5 6 5 5 5 4 4 4 3 3 2 2 2 1 1 1 2 3 2 2 3 3 4 6 6 8
3 3 4 4 4 4 5 5 5 5 5 5 5 5 5 5 5 5 5 5 4 4 4 4 4 4 4 3 3 2 2 1 1 2 2 3 2 2 2 3 4 4 6
3 3 2 3 3 4 4 5 5 5 5 5 5 4 4 4 5 5 5 5 4 3 3 3 3 4 5 4 3 3 3 2 1 2 2 2 3 2 2 2 4 5 5
2 2 2 3 4 4 4 5 5 4 4 5 5 4 4 3 5 6 5 5 4 4 3 3 3 3 4 5 5 4 4 3 3 2 2 3 4 3 3 3 3 4 4
2 2 3 3 3 3 4 4 4 4 4 4 4 4 4 4 5 5 5 4 4 3 3 3 2 3 3 2 3 3 3 4 4 3 4 4 4 4 3 4 3 4 5
2 2 2 3 3 3 4 4 4 4 4 4 3 3 3 4 5 5 4 3 3 3 3 3 3 3 3 3 2 2 2 3 4 3 4 4 4 4 4 4 4 4 5
2 2 2 3 3 4 4 4 4 4 3 3 3 3 3 3 4 4 3 3 2 2 2 3 3 3 5 5 3 3 3 3 4 5 5 5 6 6 4 2 2 3 4
1 1 2 2 3 3 4 3 3 3 3 3 2 2 2 2 4 4 3 2 2 2 2 2 4 4 5 6 4 4 4 3 2 2 3 4 4 5 5 3 2 3 3
1 2 2 2 2 3 3 3 4 4 3 3 2 1 1 2 2 3 3 2 3 2 2 2 3 5 5 6 5 4 5 3 2 2 2 2 2 2 3 3 4 3 4
2 2 2 2 2 2 3 4 4 4 4 3 2 1 1 1 2 2 3 3 3 2 2 2 2 4 4 4 3 4 4 2 1 1 2 2 2 3 3 4 5 6 6
3 3 2 2 2 2 3 3 3 3 3 2 2 1 1 1 1 2 3 3 3 2 2 3 3 4 3 2 3 3 1 1 1 1 2 3 3 3 3 3 4 5 6
3 3 3 2 2 2 2 2 2 3 3 3 2 2 1 1 1 1 1 2 2 1 1 1 2 2 1 1 2 2 0 0 1 2 2 2 2 2 2 2 3 3 3
3 2 2 2 2 2 1 1 1 2 3 3 3 3 2 2 2 2 1 1 1 2 1 1 0 0 1 1 1 1 1 1 1 1 2 2 3 3 3 2 2 2 3
2 2 2 1 1 1 1 1 1 0 1 2 2 2 3 3 3 3 4 4 4 4 2 1 2 2 2 2 2 2 2 2 2 2 2 3 3 3 3 3 3 3 4
2 1 1 1 1 1 1 1 1 1 1 1 1 2 2 3 3 4 4 4 3 2 2 2 2 2 3 3 2 3 3 3 2 2 3 3 3 3 3 3 3 4 4
2 2 2 1 1 0 0 0 0 0 0 1 2 3 3 3 2 3 2 1 1 1 1 2 2 3 3 3 3 3 3 2 2 3 3 3 3 3 3 4 4 4 5
2 1 1 1 1 1 1 1 0 0 0 1 1 2 3 3 3 3 2 0 1 1 2 2 2 3 3 3 3 3 3 3 3 3 3 4 3 3 4 4 5 7 6
1 2 2 2 1 1 1 1 0 0 1 1 1 2 2 2 1 2 1 1 1 2 2 2 3 3 3 3 3 3 4 4 4 4 4 4 4 4 5 6 5 5 5
1 1 2 2 1 1 0 0 1 1 1 2 2 3 4 2 2 2 2 2 2 3 3 3 3 3 3 3 3 4 5 5 5 5 4 4 4 5 5 5 5 5 5
0 0 0 0 0 0 1 1 1 1 2 2 3 4 5 2 2 2 3 3 3 3 4 4 4 4 5 4 4 4 5 6 5 5 5 5 5 5 5 5 5 5 5
0 0 0 1 1 2 2 1 1 2 2 2 3 3 3 3 3 3 4 4 4 4 5 6 5 6 7 8 8 7 7 7 7 6 6 5 5 5 5 6 6 6 6
0 0 0 1 1 1 1 2 2 2 3 3 3 3 3 3 4 4 4 4 5 6 7 7 8 8 10 10 10 11 12 13 12 11 10 8 7 6 6 6 6 7 7
0 0 1 1 1 2 2 2 3 3 3 4 4 4 4 4 4 5 4 5 6 6 8 9 9 10 11 12 13 13 14 15 15 13 12 10 8 8 7 7 7 6 7
0 1 1 1 2 2 2 3 3 3 4 4 4 4 4 4 5 5 5 5 5 6 7 9 10 11 13 13 14 15 16 16 17 16 12 9 7 7 7 7 7 7 7
Wind_Direction
156 156 156 159 157 153 161 170 168 158 156 159 160 157 157 158 154 152 156 153 153 156 156 152 155 142 141 143 140 137 143 166 231 287 297 309 313 327 332 334 334 332 331
153 153 155 155 154 157 164 167 162 163 162 158 153 154 159 160 160 162 166 162 163 169 173 164 170 156 151 157 159 169 186 193 210 262 298 302 296 308 320 330 332 332 326
141 147 153 155 160 165 166 161 160 160 157 152 154 160 162 163 164 167 167 168 171 178 180 178 180 165 175 180 175 184 200 205 206 234 278 290 292 304 320 321 322 324 322
141 149 160 169 167 167 163 160 159 156 157 158 162 163 162 164 167 168 165 166 168 175 180 183 184 186 190 189 190 190 187 190 200 228 268 284 287 294 300 310 318 322 320
143 150 161 158 151 152 157 156 151 153 158 158 156 153 155 161 169 167 166 165 167 171 180 189 194 197 200 198 198 193 187 190 206 237 266 287 294 301 297 298 309 316 310
126 138 129 134 142 149 153 148 148 152 154 153 157 157 161 172 182 183 172 166 172 177 184 192 199 207 212 219 222 217 203 200 208 230 255 265 276 279 283 294 303 317 309
113 121 130 136 144 150 147 143 149 152 148 149 154 159 167 182 190 190 187 166 172 182 188 195 212 212 216 214 233 248 247 242 234 226 238 251 260 262 269 280 283 287 282
114 115 127 134 139 144 146 149 149 148 151 156 166 171 175 193 192 192 188 165 168 185 197 202 206 209 216 209 204 224 243 255 254 246 239 249 255 253 244 255 267 280 283
112 118 127 140 147 151 155 156 152 149 151 157 165 168 175 198 201 194 185 156 168 189 205 201 209 216 233 225 206 217 248 265 265 269 270 272 280 282 273 277 286 295 293
115 129 129 139 152 158 160 151 141 144 147 149 161 163 174 194 208 202 191 167 172 187 206 216 225 230 241 233 210 208 232 249 256 277 285 295 294 290 285 257 245 265 281
89 100 111 124 147 151 148 138 138 137 129 134 145 143 168 197 209 207 200 176 183 195 217 227 240 251 253 249 238 219 234 236 213 227 258 282 295 291 286 274 252 245 256
82 92 101 111 129 129 134 136 133 134 133 138 138 141 201 237 231 233 227 222 209 189 217 231 240 259 264 260 257 255 256 250 198 231 257 271 282 286 291 288 272 259 253
80 83 89 91 94 108 130 142 138 141 149 162 168 187 225 256 249 252 245 239 233 211 221 241 248 258 262 275 288 284 271 237 211 251 265 267 269 275 285 292 292 285 280
83 76 77 87 87 88 113 140 152 165 173 180 184 194 223 257 250 260 261 273 250 233 229 258 268 259 259 287 305 319 342 240 233 245 268 282 286 279 279 282 286 300 297
79 77 72 72 86 93 102 146 168 193 196 192 191 196 200 219 240 250 225 224 213 218 170 145 152 279 264 286 312 313 313 318 298 284 268 279 288 291 286 280 271 277 273
75 74 79 85 91 94 100 70 36 32 271 230 220 219 225 238 251 252 248 245 244 228 190 184 209 219 234 245 253 269 268 268 271 272 275 272 274 278 285 289 279 271 276
76 60 82 87 96 104 111 119 84 19 360 333 306 278 255 255 259 260 260 258 252 226 200 202 218 226 234 240 242 244 249 254 254 257 263 269 272 275 279 282 284 281 280
55 45 59 82 95 109 124 140 168 201 311 318 322 316 321 318 307 304 298 300 276 271 230 229 235 235 234 238 242 245 250 256 253 254 256 260 261 265 271 275 274 271 277
47 37 50 66 71 94 96 93 86 85 282 308 329 332 337 335 331 326 338 319 232 261 265 258 250 247 244 242 244 245 245 248 251 250 252 252 253 256 265 269 270 277 279
44 30 47 68 60 60 78 97 122 243 269 280 284 291 305 315 303 304 298 275 261 261 266 268 265 261 257 251 249 248 249 249 248 247 249 251 250 250 257 263 265 269 270
39 23 31 49 53 45 40 274 262 258 263 274 277 280 283 260 257 264 265 261 257 258 260 262 265 265 261 255 250 249 250 253 248 245 247 250 250 253 256 258 261 264 269
81 62 55 46 20 335 309 290 282 277 275 278 289 295 299 296 268 264 263 263 263 259 257 256 259 257 252 249 249 250 250 251 249 244 245 249 250 253 257 259 262 264 266
161 91 7 347 332 309 330 325 291 279 279 280 285 286 283 276 270 266 267 270 270 268 268 262 258 261 263 259 254 247 246 249 249 246 244 249 252 254 254 255 257 262 263
201 241 268 292 297 290 296 296 289 283 279 278 278 277 274 272 272 271 271 273 273 273 270 265 261 261 264 266 264 260 258 258 256 249 241 240 246 251 251 253 258 260 262
197 254 269 272 280 283 287 288 284 281 280 280 277 277 276 276 275 274 273 271 271 271 272 271 268 266 265 266 267 267 267 268 266 257 244 237 240 242 244 249 255 259 261
182 258 273 276 278 279 279 281 282 281 279 280 278 276 275 274 274 275 276 273 273 273 275 275 271 269 270 271 272 271 271 272 272 269 256 240 237 242 241 247 250 254 257
Height
1469 1471 1473 1475 1477 1479 1481 1483 1485 1486 1488 1490 1492 1494 1496 1498 1500 1502 1504 1506 1508 1509 1511 1512 1513 1514 1515 1516 1517 1517 1518 1518 1517 1516 1517 1516 1516 1515 1514 1513 1512 1511 1510
1466 1468 1470 1472 1474 1476 1478 1480 1482 1483 1485 1487 1489 1490 1492 1494 1497 1498 1500 1502 1504 1506 1507 1508 1509 1511 1512 1513 1513 1513 1514 1514 1514 1513 1513 1513 1512 1512 1511 1510 1509 1508 1507
1464 1466 1467 1469 1471 1473 1475 1477 1479 1480 1482 1483 1485 1487 1489 1491 1493 1495 1497 1498 1500 1502 1503 1505 1506 1507 1508 1509 1509 1510 1510 1511 1511 1510 1509 1509 1509 1509 1508 1507 1506 1505 1504
1461 1463 1464 1466 1468 1470 1472 1473 1475 1477 1478 1480 1482 1484 1486 1488 1489 1491 1493 1494 1496 1498 1500 1501 1502 1503 1504 1505 1506 1506 1507 1507 1507 1507 1506 1506 1506 1505 1504 1503 1502 1501 1500
1458 1460 1462 1464 1465 1467 1469 1471 1472 1474 1475 1477 1479 1480 1482 1484 1486 1488 1490 1491 1493 1494 1496 1497 1499 1500 1501 1502 1502 1503 1503 1503 1504 1503 1503 1502 1502 1501 1501 1499 1498 1497 1496
1456 1457 1459 1461 1462 1464 1466 1467 1469 1471 1473 1474 1476 1477 1479 1481 1483 1485 1487 1488 1489 1491 1492 1494 1495 1496 1497 1498 1499 1499 1500 1500 1500 1500 1499 1499 1498 1498 1497 1496 1495 1493 1491
1454 1455 1457 1458 1460 1461 1463 1465 1466 1468 1470 1471 1473 1474 1476 1478 1480 1482 1483 1485 1486 1487 1489 1490 1491 1492 1493 1494 1494 1495 1496 1496 1496 1496 1495 1495 1495 1494 1493 1492 1491 1490 1488
1452 1453 1454 1456 1457 1459 1460 1462 1463 1465 1467 1468 1471 1472 1474 1476 1478 1479 1480 1481 1483 1484 1485 1487 1488 1488 1489 1490 1490 1491 1491 1491 1492 1492 1491 1491 1491 1490 1490 1489 1488 1486 1485
1450 1451 1452 1453 1454 1456 1457 1459 1461 1462 1464 1466 1468 1470 1471 1473 1475 1476 1477 1478 1479 1481 1482 1483 1484 1485 1485 1486 1487 1487 1487 1487 1487 1487 1487 1487 1487 1486 1486 1485 1484 1482 1480
1448 1449 1450 1451 1452 1453 1455 1456 1458 1460 1461 1463 1465 1467 1469 1470 1472 1473 1474 1475 1476 1477 1478 1479 1480 1481 1482 1482 1482 1483 1482 1482 1483 1483 1483 1483 1482 1482 1481 1481 1479 1478 1476
1446 1447 1448 1449 1450 1451 1452 1454 1455 1457 1459 1461 1462 1464 1466 1467 1469 1470 1471 1472 1473 1474 1475 1475 1476 1477 1477 1478 1478 1478 1478 1479 1478 1478 1478 1478 1477 1477 1476 1476 1475 1474 1472
1445 1445 1446 1447 1448 1449 1450 1452 1453 1455 1456 1458 1459 1461 1463 1464 1466 1467 1468 1469 1470 1471 1471 1472 1472 1473 1474 1474 1474 1474 1475 1475 1474 1474 1473 1473 1473 1472 1472 1471 1470 1470 1468
1444 1444 1445 1446 1447 1448 1449 1450 1451 1452 1454 1455 1457 1458 1460 1461 1463 1464 1465 1466 1467 1467 1468 1468 1469 1469 1470 1470 1470 1470 1470 1470 1470 1470 1469 1469 1468 1468 1467 1466 1466 1465 1464
1442 1443 1443 1444 1445 1446 1447 1448 1449 1450 1451 1453 1454 1455 1457 1458 1459 1460 1461 1462 1463 1464 1464 1465 1465 1466 1466 1466 1466 1466 1466 1466 1466 1466 1465 1465 1464 1464 1463 1462 1461 1459 1458
1442 1442 1443 1443 1444 1444 1445 1446 1447 1448 1450 1451 1452 1453 1454 1455 1456 1458 1458 1459 1460 1461 1461 1461 1462 1462 1462 1462 1462 1462 1462 1462 1462 1462 1461 1461 1460 1459 1459 1458 1456 1455 1454
1441 1441 1442 1442 1443 1443 1444 1445 1446 1447 1448 1449 1450 1451 1452 1453 1454 1454 1455 1456 1456 1457 1457 1457 1457 1458 1458 1458 1458 1458 1458 1458 1458 1457 1457 1456 1456 1455 1454 1454 1453 1451 1449
1440 1440 1441 1441 1441 1442 1442 1443 1444 1445 1446 1447 1447 1448 1449 1450 1450 1451 1452 1452 1453 1453 1453 1453 1453 1453 1453 1454 1453 1453 1453 1453 1453 1453 1453 1452 1452 1451 1450 1449 1448 1447 1445
1440 1440 1440 1440 1440 1441 1441 1442 1442 1442 1443 1444 1445 1445 1446 1447 1447 1448 1448 1448 1449 1449 1449 1449 1449 1449 1449 1449 1449 1449 1449 1449 1449 1448 1448 1448 1447 1446 1445 1445 1444 1442 1441
1439 1439 1439 1439 1439 1440 1440 1440 1441 1441 1441 1441 1442 1443 1443 1443 1444 1444 1444 1444 1444 1444 1445 1445 1445 1444 1444 1444 1444 1444 1444 1444 1444 1443 1443 1443 1442 1442 1441 1440 1439 1438 1437
1438 1438 1438 1438 1438 1438 1439 1439 1439 1439 1439 1439 1439 1439 1439 1440 1440 1440 1440 1440 1440 1440 1440 1440 1440 1440 1440 1439 1439 1439 1439 1439 1438 1438 1438 1437 1437 1436 1436 1435 1434 1433 1432
1437 1437 1437 1437 1437 1437 1437 1437 1437 1436 1436 1436 1436 1436 1436 1436 1436 1436 1436 1436 1436 1436 1436 1436 1435 1435 1435 1434 1434 1433 1433 1433 1433 1433 1432 1432 1431 1431 1430 1430 1429 1428 1427
1436 1436 1436 1435 1435 1435 1435 1434 1434 1434 1434 1433 1433 1433 1433 1433 1432 1432 1432 1432 1432 1432 1432 1431 1430 1430 1430 1429 1428 1428 1427 1427 1427 1427 1426 1426 1426 1425 1425 1424 1423 1423 1422
1435 1434 1434 1434 1434 1433 1433 1432 1432 1431 1431 1430 1430 1429 1429 1429 1428 1428 1428 1428 1427 1427 1426 1426 1425 1424 1424 1424 1423 1422 1422 1421 1421 1421 1420 1420 1420 1419 1419 1418 1417 1417 1416
1433 1433 1432 1432 1431 1431 1430 1430 1429 1428 1428 1427 1426 1426 1425 1425 1424 1424 1423 1423 1422 1422 1421 1420 1419 1419 1418 1418 1417 1416 1416 1415 1415 1415 1414 1414 1413 1413 1413 1412 1411 1411 1410
1431 1431 1430 1430 1429 1428 1427 1427 1426 1425 1424 1423 1422 1422 1421 1420 1420 1419 1418 1418 1417 1416 1415 1414 1413 1413 1412 1411 1411 1410 1410 1409 1409 1408 1408 1408 1407 1407 1406 1406 1405 1405 1404
1429 1428 1428 1427 1426 1425 1424 1423 1422 1422 1420 1419 1418 1418 1417 1416 1415 1414 1413 1412 1411 1411 1410 1409 1408 1407 1406 1405 1404 1404 1403 1403 1403 1402 1402 1401 1401 1401 1400 1400 1399 1399 1398